WORLDVIEW-2 (WV-2)

Last updated on Tue Sep 15 2026 00:02:54 GMT+0000 (Coordinated Universal Time)

1 35946U 09055A 26257.58116763 .00000069 00000+0 37337-4 0 9996 2 35946 98.4722 329.8025 0003554 329.3316 30.7663 14.37920019888492
UTC large
Height (km)
Speed (km/s)
/
Latitude / Longitude
Inclination (degrees)
Orbital Period (minutes)
Azimuth
Elevation
Range (km)
Doppler Factor

Next 0 passes for location: London (51.5072 / 0.1276)

No passes found over London.
WORLDVIEW-2 (WV-2)